カタログに戻る

DELTA 2 R/B(1)

運用中LEO
NORAD 22276·ROCKET BODY·🇺🇸 United States

打ち上げ Dec 18, 1992 から Cape Canaveral Space Force Station

Loading…

次のパス (今後24時間)

TLE

最新Source: Space-Track

元期: Sep 14, 2026, 17:14 UTC

1 22276U 92089B   26257.71840778  .00002046  00000-0  13305-3 0  9998
2 22276  20.2848  41.3453 0049695  36.9485 323.4351 14.96623507805134

AllMySatでDELTA 2 R/B(1)をリアルタイム追跡

Download on the App Store